Regional Weather Roundup
Issued by NWS

Current Version | Previous Version | Text Only | Print | Product List | Glossary On
Versions: 1 2 3 4 5 6 7 8 9 10 11 12 13 14 15 16 17 18 19 20 21 22 23 24 25 26 27 28
000
ASUS42 KTBW 290016
RWRFL
FLORIDA REGIONAL WEATHER ROUNDUP
NATIONAL WEATHER SERVICE TAMPA BAY RUSKIN FL
800 PM EDT WED SEP 28 2016

NOTE: "FAIR" INDICATES FEW OR NO CLOUDS BELOW 12,000 FEET WITH NO
SIGNIFICANT WEATHER AND/OR OBSTRUCTIONS TO VISIBILITY.

FLZ001>010-012>015-112-114-115-290100-
PANHANDLE FLORIDA

CITY           SKY/WX    TMP DP  RH WIND       PRES   REMARKS
PENSACOLA      CLEAR     84  69  60 W9        29.95R
PENSACOLA NAS  CLEAR     80  70  71 W5        29.95R
MILTON NAS     PTCLDY    79  71  76 W5        29.95R
CRESTVIEW      CLEAR     82  72  71 W6        29.95S
DUKE FIELD     PTCLDY    82  73  74 SW6       29.94S
VALPARAISO     CLEAR     83  72  68 SW3       29.94S
MARY ESTHER    CLEAR     83  70  64 W7        29.93S
TRI COUNTY     FAIR      78  70  76 SW5       29.95R
PANAMA CITY    FAIR      81  73  76 SW5       29.93S
TYNDALL AFB    PTCLDY    82  73  73 W5        29.95R
APALACHICOLA   MOCLDY    82  77  84 W3        29.96R

STATION/POSITION SKY/WX   TEMP    WIND        PRES    WAVE   SWELL
                          AIR SEA DIR/SP/G            HT/PER HT/PER
                          (F)     (DEG/KT/KT) (MB)    (FT/S) (FT/S)
30.1N   87.6W              84 87  260/ 12/ 14 1014.4S   1/ 3
29.2N   88.2W              83 86  270/ 10/ 14 1014.6F
28.8N   86.0W              82 85              1015.2R   2/ 5
PANAMA CITY BEAC           83 86  260/ 13/ 17 1014.2S
TOWER C                    82     260/ 11/ 12 1015.6R
28.5N   84.5W              83 85  240/  6/  8 1015.5R   2/ 4

$$
FLZ011-016>038-118-127-128-134-139-239-290100-
NORTH FLORIDA

CITY           SKY/WX    TMP DP  RH WIND       PRES   REMARKS
MARIANNA       CLEAR     77  74  90 S3        29.94R
TALLAHASSEE    PTCLDY    77  73  87 SW3       29.95S
PERRY          CLOUDY    80  74  81 S3        29.96F
CROSS CITY     CLOUDY    75  73  94 S3        29.99R
LAKE CITY      FAIR      77  73  88 SW7       29.98R
GAINESVILLE    LGT RAIN  74  71  91 SW7       29.99S
WILLISTON      CLEAR     75  73  94 MISG      30.00S
PALATKA        LGT RAIN  73  73 100 SW5       30.00R
MAYPORT NAS    CLOUDY    79  72  79 SW9       29.96R
JACKSONVILLE   CLOUDY    76  75  97 SW5       29.96R
JAX NAS        MOCLDY    82  71  69 S5        29.98R
FERNANDINA BEA FAIR      82  73  74 SW6       29.95R
ST AUGUSTINE   CLOUDY    76  72  87 SW5       29.99R FOG
PALM COAST     DRIZZLE  N/A N/A N/A MISG      30.00R

STATION/POSITION SKY/WX   TEMP    WIND        PRES    WAVE   SWELL
                          AIR SEA DIR/SP/G            HT/PER HT/PER
                          (F)     (DEG/KT/KT) (MB)    (FT/S) (FT/S)
SHELL POINT                81     120/  1/  4 1013.2
KEATON BEACH               82     240/ 11/ 12 1014.6R
CEDAR KEY                  78     190/  4/  5 1016.1F
FERNANDINA                 84 84  220/  1/  6 1013.9R
30.7N   81.3W                 82                N/A     2/13   2/13
MAYPORT                    83 84  210/  6/  9 1014.5R
31.4N   80.9W              82 82  170/ 14/ 16 1013.5R   2/12   2/12
ST AUGUSTINE               76 84  230/  6/  8 1016.2R

$$
FLZ040-043>046-052-053-057-058-063-144-290100-
INTERIOR CENTRAL FLORIDA

CITY           SKY/WX    TMP DP  RH WIND       PRES   REMARKS
OCALA          CLOUDY    72  68  88 SW5       30.02R
THE VILLAGES     N/A     73  73 100 MISG      29.92R
LEESBURG       CLOUDY    77  70  79 NW12      30.02R
SANFORD        CLOUDY    80  70  71 NW7       30.00R
ORLANDO EXEC   MOCLDY    81  71  71 NW10      30.01R
ORLANDO INTL   TSTM      78  71  79 W9        30.00R
KISSIMMEE      TSTM      74  71  91 S5        30.03R
WINTER HAVEN   CLOUDY    81  71  71 W6        30.02R
LAKELAND       PTCLDY    81  73  78 CALM      30.02R
BARTOW         FAIR      81  72  74 W5        30.01S
OKEECHOBEE     PTCLDY    75  72  88 SW5       30.01R

$$
FLZ041-047-054-059-064-141-147-290100-
EAST CENTRAL FLORIDA

CITY           SKY/WX    TMP DP  RH WIND       PRES   REMARKS
DAYTONA BEACH  CLOUDY    78  72  81 W5        30.00R THUNDER
DELAND         MOCLDY    77  72  83 NW3       30.00R
NEW SMYRNA BEA MOCLDY    79  70  73 NW7       30.00R THUNDER
JFK SPACE CTR  CLOUDY    76  72  87 SE6       29.99S
TITUSVILLE     PTCLDY    79  75  89 SE6       30.00S
CAPE CANAVERAL CLOUDY    75  72  90 S8        29.99R
PATRICK AFB    CLOUDY    79  73  83 S6        29.99F
MELBOURNE      RAIN      75  74  96 E9        29.99S FOG
VERO BEACH     TSTM      75  71  87 CALM      30.02R
FT PIERCE      LGT RAIN  78  74  87 CALM      30.01R
STUART         PTCLDY    81  75  83 S8        30.02R

STATION/POSITION SKY/WX   TEMP    WIND        PRES    WAVE   SWELL
                          AIR SEA DIR/SP/G            HT/PER HT/PER
                          (F)     (DEG/KT/KT) (MB)    (FT/S) (FT/S)
28.5N   80.2W              83 86  140/  8/ 10 1015.6R
TRIDENT PIER               72 86  170/  8/ 16 1016.2R
28.4N   80.5W                 85                N/A     2/11   2/11
27.5N   80.2W                 85                N/A     2/12   2/12

$$
FLZ050-056-061-142-242-148-248-149-249-151-251-155-255-
160-260-290100-
WEST CENTRAL FLORIDA

CITY           SKY/WX    TMP DP  RH WIND       PRES   REMARKS
CRYSTAL RIVER  TSTM      72  72 100 CALM      30.02S
INVERNESS      TSTM      70  70 100 CALM      30.02S
BROOKSVILLE    TSTM      72  72 100 NW5       30.06R FOG
CLEARWATER AIR LGT RAIN  77  73  88 CALM      30.01R
ST PETE CLEARW LGT RAIN  79  77  94 W7        30.01R
TAMPA INTL     LGT RAIN  80  72  76 W12       30.01R
TAMPA EXEC     CLOUDY    82  73  74 CALM      30.01R
PLANT CITY     CLOUDY    79  77  94 CALM      30.03R
MACDILL AFB    CLOUDY    80  78  95 W7        30.01R
PETER O KNIGHT LGT RAIN  82  77  83 W5        30.01R
ST PETERSBURG  LGT RAIN  80  77  90 W6        29.99R
SARASOTA       PTCLDY    85  73  67 W10       29.99R
VENICE         FAIR      84  75  74 W8        30.01R

STATION/POSITION SKY/WX   TEMP    WIND        PRES    WAVE   SWELL
                          AIR SEA DIR/SP/G            HT/PER HT/PER
                          (F)     (DEG/KT/KT) (MB)    (FT/S) (FT/S)
27.3N   84.2W                 86                N/A     1/ 3
CLEARWATER BEACH           81 87  240/  7/  9 1016.0R
MIDDLE TAMPA BAY                  290/ 11/ 13 1015.9R
VENICE                     83 88  250/ 12/ 14 1015.6R

$$
FLZ066-069-070-075>078-162-262-165-265-290100-
SOUTHWEST FLORIDA AND KEYS

CITY           SKY/WX    TMP DP  RH WIND       PRES   REMARKS
PUNTA GORDA    CLOUDY    82  73  74 W8        30.02R
FT MYERS       CLOUDY    82  74  76 W7        30.00R
SOUTHWEST INTL PTCLDY    82  72  71 W3        30.01R
NAPLES         CLOUDY    83  75  77 SW5       30.01R
MARATHON       CLEAR     81  73  76 CALM      30.02R
KEY WEST NAS   PTCLDY    83  72  69 W5        30.02R
KEY WEST INTL  CLEAR     84  75  74 W3        30.02R

STATION/POSITION SKY/WX   TEMP    WIND        PRES    WAVE   SWELL
                          AIR SEA DIR/SP/G            HT/PER HT/PER
                          (F)     (DEG/KT/KT) (MB)    (FT/S) (FT/S)
NAPLES                        89              1015.8S
26.0N   85.6W              84 86  280/  6/  8 1016.3F   1/ 3
DRY TORTUGAS               84     280/  1/  2 1016.9R
SAND KEY                   83     280/  3/  5 1017.0R
LONG KEY                   84 85  290/  4/  5 1016.9R

$$
FLZ067-068-071>074-168-172>174-290100-
SOUTHEAST FLORIDA

CITY           SKY/WX    TMP DP  RH WIND       PRES   REMARKS
W PALM BEACH   CLOUDY    76  72  87 SE3       30.01S
BOCA RATON     CLEAR     79  73  83 CALM      30.01R
FT LAUDER-EXEC MOCLDY    76  70  82 NE5       30.00S
FT LAUDERDALE  MOCLDY    81  71  71 CALM      30.00R
POMPANO BEACH  LGT RAIN  77  74  90 CALM      30.01R
PEMBROKE PINES PTCLDY    85  73  67 S7        30.01S
OPA LOCKA      CLEAR     83  72  69 W14       30.00F
MIAMI          PTCLDY    86  80  82 SW7       30.00S HX 101
WEST KENDALL   CLEAR     80  75  84 SW6       30.01R
HOMESTEAD      CLEAR     80  74  81 SW5       30.01R

STATION/POSITION SKY/WX   TEMP    WIND        PRES    WAVE   SWELL
                          AIR SEA DIR/SP/G            HT/PER HT/PER
                          (F)     (DEG/KT/KT) (MB)    (FT/S) (FT/S)
PORT EVERGLADES            86     220/  6/  8 1015.9R
VIRGINIA KEY               85 89  190/  4/  5 1016.5R
LAKE WORTH                        150/  5/  9   N/A
FOWEY ROCKS                84 84  220/ 10/ 11 1016.8S
SETTLEMENT POINT           83     220/  9/ 10 1017.3R

$$





USA.gov is the U.S. government's official web portal to all federal, state and local government web resources and services.